EW5196 Weather Reports


Display with metric or nautical units.
time (UTC)temp
F
wind
direction
speed
MPH
gust
MPH
rain 1hr
in
rain 24hr
in
rain mn
in
humidity
%
barometer
mb
20260905171901 72 109 1.0 3.0 0.00 0.40 0.40 97 1013.4
20260905171357 72 84 2.0 2.0 0.00 0.40 0.40 97 1013.7
20260905170854 72 77 0.0 2.0 0.00 0.40 0.40 97 1013.6
20260905170350 72 33 0.0 2.0 0.02 0.40 0.40 96 1013.9
20260905165848 71 210 0.0 2.0 0.05 0.40 0.40 96 1014.3
20260905165344 72 260 0.0 5.0 0.05 0.40 0.40 96 1014.9
20260905164838 72 217 0.0 3.0 0.05 0.39 0.39 96 1015.0
20260905164333 73 125 3.0 3.0 0.09 0.39 0.39 96 1015.4
20260905163828 73 113 0.0 8.0 0.31 0.39 0.39 96 1015.5
20260905163325 74 100 1.0 5.0 0.35 0.37 0.37 97 1015.3
20260905162821 74 149 1.0 2.0 0.28 0.33 0.33 96 1015.4
20260905162320 75 134 2.0 3.0 0.71 0.31 0.31 96 1015.5
20260905161815 75 157 2.0 3.0 1.11 0.28 0.28 95 1015.2
20260905161315 75 66 2.0 4.0 0.85 0.17 0.17 93 1015.2
20260905160812 76 140 3.0 5.0 0.38 0.07 0.07 92 1015.1
20260905160307 78 165 2.0 3.0 0.09 0.02 0.02 87 1014.9
20260905155801 79 236 0.0 2.0 0.05 0.01 0.01 85 1014.6
20260905155301 80 139 2.0 2.0 0.02 0.00 0.00 81 1014.3
20260905154754 80 156 2.0 5.0 0.00 0.00 0.00 79 1014.3
20260905154251 80 177 2.0 5.0 0.00 0.00 0.00 78 1013.7
20260905153746 80 176 3.0 3.0 0.00 0.00 0.00 79 1013.6
20260905153242 81 286 2.0 2.0 0.00 0.00 0.00 77 1013.8
20260905152736 82 123 0.0 1.0 0.00 0.00 0.00 76 1013.8
20260905152231 82 219 0.0 3.0 0.00 0.00 0.00 74 1013.9
20260905151730 81 261 3.0 5.0 0.00 0.00 0.00 74 1013.9
20260905151227 81 166 2.0 3.0 0.00 0.00 0.00 75 1014.1
20260905150726 81 292 0.0 5.0 0.00 0.00 0.00 74 1014.0
20260905150226 81 271 2.0 4.0 0.00 0.00 0.00 74 1013.9
20260905145723 82 249 3.0 3.0 0.00 0.00 0.00 74 1014.1
20260905145218 82 165 1.0 6.0 0.00 0.00 0.00 75 1014.2
20260905144717 82 184 0.0 4.0 0.00 0.00 0.00 76 1014.1
20260905144212 82 184 0.0 4.0 0.00 0.00 0.00 76 1014.1
20260905143711 82 207 3.0 7.0 0.00 0.00 0.00 73 1014.0
20260905143206 82 242 3.0 4.0 0.00 0.00 0.00 74 1013.8
20260905142704 83 203 0.0 4.0 0.00 0.00 0.00 73 1013.9
20260905142159 83 119 2.0 3.0 0.00 0.00 0.00 77 1013.8
20260905141654 83 128 2.0 2.0 0.00 0.00 0.00 76 1014.0
20260905141150 83 236 2.0 2.0 0.00 0.00 0.00 73 1013.9
20260905140645 83 161 0.0 2.0 0.00 0.00 0.00 74 1013.7
20260905140139 82 222 1.0 2.0 0.00 0.00 0.00 76 1013.8
20260905135634 81 237 1.0 3.0 0.00 0.00 0.00 77 1013.5
20260905135130 80 273 2.0 3.0 0.00 0.00 0.00 81 1013.7
20260905134624 78 126 3.0 3.0 0.00 0.00 0.00 84 1013.8
20260905134123 77 98 1.0 2.0 0.00 0.00 0.00 89 1013.7
20260905133619 76 223 3.0 4.0 0.00 0.00 0.00 98 1013.7
20260905133118 75 210 1.0 5.0 0.00 0.00 0.00 99 1013.2
20260905132618 75 220 2.0 4.0 0.00 0.00 0.00 99 1013.5
20260905132113 74 147 0.0 2.0 0.00 0.00 0.00 99 1013.5
20260905131608 74 147 0.0 1.0 0.00 0.00 0.00 99 1013.6
20260905131103 74 232 0.0 0.0 0.00 0.00 0.00 99 1013.4
20260905130603 73 184 0.0 1.0 0.00 0.00 0.00 99 1013.5
20260905130058 73 222 0.0 2.0 0.00 0.00 0.00 99 1013.4
20260905125557 73 194 0.0 1.0 0.00 0.00 0.00 99 1013.0
20260905125053 73 138 1.0 2.0 0.00 0.00 0.00 99 1013.2
20260905124549 73 175 0.0 0.0 0.00 0.00 0.00 99 1013.3
20260905124045 73 172 0.0 1.0 0.00 0.00 0.00 99 1013.5
20260905123540 72 147 0.0 0.0 0.00 0.00 0.00 99 1013.3
20260905123037 72 171 0.0 1.0 0.00 0.00 0.00 99 1013.4
20260905122536 72 136 0.0 1.0 0.00 0.00 0.00 99 1013.5
20260905122031 72 146 0.0 2.0 0.00 0.00 0.00 99 1013.7
20260905121526 71 149 1.0 2.0 0.00 0.00 0.00 99 1013.7
20260905121021 71 172 0.0 1.0 0.00 0.00 0.00 99 1013.5
20260905120521 70 134 0.0 1.0 0.00 0.00 0.00 99 1013.5
20260905120016 70 160 0.0 1.0 0.00 0.00 0.00 99 1013.6
20260905115515 70 137 0.0 1.0 0.00 0.00 0.00 99 1013.4
20260905115010 70 196 0.0 1.0 0.00 0.00 0.00 99 1013.2
20260905114509 70 178 1.0 2.0 0.00 0.00 0.00 99 1013.3
20260905114008 69 160 1.0 2.0 0.00 0.00 0.00 99 1013.2
20260905113504 69 144 1.0 2.0 0.00 0.00 0.00 99 1013.2
20260905112959 69 128 0.0 2.0 0.00 0.00 0.00 99 1013.4
20260905112454 69 144 0.0 2.0 0.00 0.00 0.00 99 1013.3
20260905111949 69 134 1.0 2.0 0.00 0.00 0.00 99 1013.3
20260905111444 69 159 0.0 0.0 0.00 0.00 0.00 99 1013.2
20260905110943 69 159 0.0 1.0 0.00 0.00 0.00 99 1013.2
20260905110442 69 146 1.0 1.0 0.00 0.00 0.00 99 1013.2
20260905105937 69 119 0.0 1.0 0.00 0.00 0.00 99 1013.2
20260905105432 69 138 0.0 1.0 0.00 0.00 0.00 99 1013.3
20260905104931 69 146 0.0 1.0 0.00 0.00 0.00 99 1013.0
20260905104422 69 130 1.0 2.0 0.00 0.00 0.00 99 1013.1
20260905103922 69 176 0.0 2.0 0.00 0.00 0.00 99 1013.2
20260905103417 69 141 1.0 2.0 0.00 0.00 0.00 99 1013.1
20260905102913 69 139 1.0 2.0 0.00 0.00 0.00 99 1013.0
20260905102409 69 157 1.0 2.0 0.00 0.00 0.00 99 1012.9
20260905101910 70 156 1.0 2.0 0.00 0.00 0.00 99 1012.8
20260905101408 70 159 0.0 2.0 0.00 0.00 0.00 99 1013.0
20260905100903 70 177 0.0 1.0 0.00 0.00 0.00 99 1012.8
20260905100359 70 172 0.0 2.0 0.00 0.00 0.00 99 1012.6
20260905095858 70 143 0.0 0.0 0.00 0.00 0.00 99 1012.6
20260905095352 70 119 0.0 0.0 0.00 0.00 0.00 99 1012.4
20260905094847 70 80 0.0 0.0 0.00 0.00 0.00 99 1012.7
20260905094343 70 80 0.0 0.0 0.00 0.00 0.00 99 1012.8
20260905093841 70 165 0.0 0.0 0.00 0.00 0.00 99 1012.6
20260905093337 70 154 0.0 0.0 0.00 0.00 0.00 99 1012.6
20260905092833 70 77 2.0 2.0 0.00 0.00 0.00 99 1012.7
20260905092333 70 74 0.0 0.0 0.00 0.00 0.00 99 1012.4
20260905091828 70 90 0.0 0.0 0.00 0.00 0.00 99 1012.5
20260905091328 70 134 1.0 2.0 0.00 0.00 0.00 99 1012.6
20260905090826 70 162 1.0 2.0 0.00 0.00 0.00 99 1012.2
20260905090323 70 67 1.0 2.0 0.00 0.00 0.00 99 1012.3
20260905085822 70 132 1.0 1.0 0.00 0.00 0.00 99 1012.3
20260905085316 70 92 0.0 1.0 0.00 0.00 0.00 99 1012.4
20260905084812 70 111 1.0 2.0 0.00 0.00 0.00 99 1012.4
20260905084311 70 96 0.0 1.0 0.00 0.00 0.00 99 1012.4
20260905083806 70 154 0.0 1.0 0.00 0.00 0.00 99 1012.6
20260905083302 71 132 0.0 1.0 0.00 0.00 0.00 99 1012.5
20260905082757 70 119 0.0 1.0 0.00 0.00 0.00 99 1012.5
20260905082254 70 119 0.0 0.0 0.00 0.00 0.00 99 1012.5
20260905081753 70 136 0.0 1.0 0.00 0.00 0.00 99 1012.7
20260905081249 71 172 0.0 0.0 0.00 0.00 0.00 99 1012.8
20260905080743 71 172 0.0 1.0 0.00 0.00 0.00 99 1012.8
20260905080242 71 126 1.0 1.0 0.00 0.00 0.00 99 1012.7
20260905075741 71 167 1.0 2.0 0.00 0.00 0.00 99 1012.8
20260905075241 71 172 0.0 2.0 0.00 0.00 0.00 99 1012.7
20260905074739 71 111 0.0 1.0 0.00 0.00 0.00 99 1012.8
20260905074236 71 113 1.0 2.0 0.00 0.00 0.00 99 1013.2
20260905073731 71 181 2.0 2.0 0.00 0.00 0.00 99 1012.9
20260905073227 71 181 2.0 2.0 0.00 0.00 0.00 99 1013.1
20260905072726 71 226 0.0 2.0 0.00 0.00 0.00 99 1013.0
20260905072221 71 147 0.0 1.0 0.00 0.00 0.00 99 1013.1
20260905071718 71 136 0.0 1.0 0.00 0.00 0.00 99 1013.2
20260905071214 71 119 0.0 1.0 0.00 0.00 0.00 99 1013.2
20260905070708 71 119 0.0 1.0 0.00 0.00 0.00 99 1013.2
20260905070204 71 147 0.0 1.0 0.00 0.00 0.00 99 1013.1
20260905065703 71 124 0.0 1.0 0.00 0.00 0.00 99 1013.4
20260905065157 71 159 0.0 1.0 0.00 0.00 0.00 99 1013.4
20260905064653 71 149 0.0 1.0 0.00 0.00 0.00 99 1013.3
20260905064148 71 128 0.0 2.0 0.00 0.00 0.00 99 1013.4
20260905063647 71 156 1.0 1.0 0.00 0.00 0.00 99 1013.4
20260905063143 71 146 0.0 2.0 0.00 0.00 0.00 99 1013.6
20260905062639 71 98 0.0 2.0 0.00 0.00 0.00 99 1013.5
20260905062138 71 84 0.0 1.0 0.00 0.00 0.00 99 1013.8
20260905061633 71 247 0.0 1.0 0.00 0.00 0.00 99 1013.3
20260905061132 71 159 0.0 0.0 0.00 0.00 0.00 99 1013.8
20260905060628 71 157 0.0 1.0 0.00 0.00 0.00 99 1013.6
20260905060124 71 130 0.0 2.0 0.00 0.00 0.00 99 1013.7
20260905055622 71 159 1.0 2.0 0.00 0.00 0.00 99 1014.0
20260905055118 71 181 0.0 2.0 0.00 0.00 0.00 99 1014.1
20260905054614 71 165 0.0 1.0 0.00 0.00 0.00 99 1014.0
20260905054109 71 156 0.0 1.0 0.00 0.00 0.00 99 1014.1
20260905053609 71 125 0.0 1.0 0.00 0.00 0.00 99 1014.2
20260905053104 71 177 1.0 2.0 0.00 0.00 0.00 99 1014.6
20260905052603 71 180 0.0 1.0 0.00 0.00 0.00 99 1014.3
20260905052058 71 172 0.0 2.0 0.00 0.00 0.00 99 1014.5
20260905051554 71 141 0.0 0.0 0.00 0.00 0.00 99 1014.5
20260905051050 71 172 0.0 1.0 0.00 0.00 0.00 99 1014.8
20260905050546 71 221 1.0 2.0 0.00 0.00 0.00 99 1015.0
20260905050043 71 178 0.0 2.0 0.00 0.00 0.00 99 1014.7
20260905045537 71 149 2.0 2.0 0.00 0.00 0.00 99 1015.1
20260905045033 71 153 1.0 1.0 0.00 0.00 0.00 99 1015.3
20260905044532 71 207 0.0 1.0 0.00 0.00 0.00 99 1015.1
20260905044027 71 119 0.0 1.0 0.00 0.00 0.00 99 1015.4
20260905043526 71 172 0.0 1.0 0.00 0.00 0.00 99 1015.3
20260905043022 71 165 0.0 2.0 0.00 0.00 0.00 99 1015.0
20260905042520 71 146 1.0 2.0 0.00 0.00 0.00 99 1015.3
20260905042016 71 150 0.0 2.0 0.00 0.00 0.00 99 1015.4
20260905041511 71 147 0.0 0.0 0.00 0.00 0.00 99 1015.3
20260905041007 71 260 0.0 0.0 0.00 0.00 0.00 99 1015.4
20260905040506 71 147 0.0 1.0 0.00 0.00 0.00 99 1015.3
20260905040005 71 172 0.0 1.0 0.02 0.35 0.35 99 1015.3
20260905035500 72 147 0.0 1.0 0.02 0.35 0.35 99 1015.5
20260905034957 72 133 0.0 1.0 0.00 0.34 0.34 99 1015.6
20260905034452 72 162 0.0 0.0 0.00 0.34 0.34 99 1015.4
20260905033946 72 196 0.0 0.0 0.00 0.34 0.34 99 1015.7
20260905033445 72 159 0.0 2.0 0.00 0.34 0.34 99 1015.7
20260905032940 72 177 0.0 1.0 0.00 0.34 0.34 99 1015.5
20260905032436 72 80 0.0 0.0 0.00 0.34 0.34 99 1015.5
20260905031930 72 159 0.0 1.0 0.00 0.34 0.34 99 1015.6
20260905031426 72 136 0.0 1.0 0.00 0.34 0.34 99 1015.5
20260905030921 72 188 0.0 2.0 0.00 0.34 0.34 99 1015.3
20260905030417 72 90 0.0 1.0 0.00 0.34 0.34 99 1015.5
20260905025916 72 125 0.0 1.0 0.00 0.34 0.34 99 1015.0
20260905025411 72 196 2.0 2.0 0.00 0.34 0.34 99 1015.3
20260905024908 72 50 2.0 2.0 0.00 0.34 0.34 99 1015.2
20260905024402 72 172 0.0 1.0 0.00 0.34 0.34 99 1015.3
20260905023858 72 217 0.0 3.0 0.00 0.34 0.34 99 1015.3
20260905023353 72 147 0.0 1.0 0.00 0.34 0.34 99 1015.5
20260905022852 72 85 0.0 1.0 0.00 0.34 0.34 99 1015.6
20260905022347 72 105 1.0 2.0 0.00 0.34 0.34 99 1015.6
20260905021847 72 174 0.0 2.0 0.00 0.34 0.34 99 1015.7
20260905021343 72 142 1.0 2.0 0.00 0.34 0.34 99 1015.7
20260905020838 72 82 1.0 2.0 0.00 0.34 0.34 99 1015.5
20260905020333 72 43 2.0 2.0 0.00 0.34 0.34 99 1015.7
20260905015832 72 91 0.0 1.0 0.00 0.34 0.34 99 1015.8
20260905015331 72 67 0.0 2.0 0.00 0.34 0.34 99 1015.5
20260905014831 72 159 0.0 2.0 0.00 0.34 0.34 99 1015.7
20260905014326 72 109 0.0 1.0 0.00 0.34 0.34 99 1015.5
20260905013821 72 119 0.0 2.0 0.00 0.34 0.34 99 1015.2
20260905013318 72 78 0.0 1.0 0.00 0.34 0.34 99 1015.3
20260905012813 72 88 0.0 1.0 0.00 0.34 0.34 99 1015.0
20260905012308 72 41 0.0 2.0 0.00 0.34 0.34 99 1015.1
20260905011805 72 92 0.0 2.0 0.00 0.34 0.34 99 1014.8
20260905011301 72 71 0.0 1.0 0.00 0.34 0.34 98 1014.8
20260905010801 72 116 0.0 1.0 0.00 0.34 0.34 98 1014.8
20260905010255 72 124 0.0 1.0 0.00 0.34 0.34 98 1014.6
20260905005752 73 184 2.0 2.0 0.00 0.34 0.34 98 1014.5
20260905005253 73 184 0.0 3.0 0.00 0.34 0.34 98 1014.6
20260905004752 73 138 0.0 2.0 0.00 0.34 0.34 98 1014.5
20260905004247 73 156 0.0 2.0 0.00 0.34 0.34 98 1014.4
20260905003742 73 148 0.0 2.0 0.00 0.34 0.34 98 1014.3
20260905003238 73 174 0.0 2.0 0.00 0.34 0.34 98 1014.1
20260905002733 73 59 1.0 2.0 0.00 0.34 0.34 98 1013.8
20260905002228 73 198 1.0 3.0 0.00 0.34 0.34 98 1014.4
20260905001723 73 224 2.0 3.0 0.00 0.34 0.34 98 1014.0
20260905001222 73 199 1.0 3.0 0.00 0.34 0.34 98 1013.9
20260905000718 73 236 1.0 2.0 0.00 0.34 0.34 98 1013.6
20260905000213 73 76 0.0 1.0 0.00 0.34 0.34 98 1013.6
20260904235708 73 169 2.0 3.0 0.00 0.34 0.34 98 1013.8
20260904235203 73 204 1.0 2.0 0.00 0.34 0.34 98 1014.0
20260904234657 73 205 1.0 2.0 0.00 0.34 0.34 98 1014.0
20260904234153 73 135 3.0 3.0 0.00 0.34 0.34 98 1013.9
20260904233648 73 169 1.0 1.0 0.00 0.34 0.34 98 1013.5
20260904233144 73 51 1.0 2.0 0.00 0.34 0.34 97 1014.1
20260904232641 73 60 2.0 2.0 0.00 0.34 0.34 97 1014.6
20260904232137 73 42 2.0 2.0 0.00 0.34 0.34 97 1014.8
20260904231632 73 37 1.0 2.0 0.02 0.34 0.34 97 1014.9
20260904231127 73 87 2.0 2.0 0.02 0.34 0.34 97 1015.5
20260904230626 73 78 1.0 3.0 0.00 0.34 0.34 96 1015.9
20260904230122 73 207 2.0 5.0 0.05 0.34 0.34 95 1016.0
20260904225619 73 68 0.0 1.0 0.31 0.34 0.34 94 1015.3
20260904225114 74 44 1.0 3.0 0.31 0.33 0.33 94 1015.2
20260904224609 74 179 0.0 3.0 0.02 0.28 0.28 95 1015.0
20260904224104 74 193 3.0 3.0 0.00 0.28 0.28 95 1015.2
20260904223603 74 121 1.0 3.0 0.00 0.28 0.28 94 1015.5
20260904223059 74 48 0.0 3.0 0.00 0.28 0.28 94 1015.5
20260904222554 74 88 3.0 6.0 0.00 0.28 0.28 96 1015.8
20260904222050 74 228 2.0 3.0 0.00 0.28 0.28 96 1016.0
20260904221549 74 172 3.0 4.0 0.00 0.28 0.28 96 1016.0
20260904221044 74 177 0.0 1.0 0.00 0.28 0.28 95 1015.8
20260904220544 74 186 1.0 3.0 0.00 0.28 0.28 95 1016.1
20260904220040 74 154 2.0 3.0 0.14 0.28 0.28 94 1015.7
20260904215540 74 182 2.0 3.0 1.18 0.27 0.27 93 1016.0
20260904215036 75 279 3.0 3.0 1.28 0.22 0.22 89 1015.8
20260904214531 78 148 1.0 5.0 0.28 0.05 0.05 81 1015.9
20260904214027 79 158 7.0 9.0 0.00 0.00 0.00 71 1015.4
20260904213524 80 178 4.0 13.0 0.00 0.00 0.00 68 1014.6
20260904213022 81 306 5.0 23.0 0.00 0.00 0.00 67 1014.6
20260904212521 83 267 7.0 14.0 0.00 0.00 0.00 64 1014.2
20260904212016 85 280 5.0 12.0 0.00 0.00 0.00 64 1014.5
20260904211516 89 254 8.0 16.0 0.00 0.00 0.00 61 1014.3
20260904211012 92 228 4.0 7.0 0.00 0.00 0.00 64 1014.3
20260904210511 93 237 2.0 3.0 0.00 0.00 0.00 63 1013.3
20260904210007 93 254 0.0 1.0 0.00 0.00 0.00 61 1013.1
20260904205502 93 258 2.0 2.0 0.00 0.00 0.00 61 1013.5
20260904204959 93 253 0.0 0.0 0.00 0.00 0.00 58 1013.4
20260904204454 93 272 0.0 0.0 0.00 0.00 0.00 58 1013.3
20260904203950 93 285 0.0 2.0 0.00 0.00 0.00 56 1013.1
20260904203446 93 312 0.0 1.0 0.00 0.00 0.00 60 1013.0
20260904202942 93 321 0.0 2.0 0.00 0.00 0.00 60 1013.1
20260904202438 92 229 1.0 1.0 0.00 0.00 0.00 61 1013.0
20260904201934 91 323 0.0 0.0 0.00 0.00 0.00 62 1012.9
20260904201429 91 261 0.0 1.0 0.00 0.00 0.00 62 1013.0
20260904200924 92 150 0.0 1.0 0.00 0.00 0.00 61 1013.0
20260904200422 93 171 0.0 0.0 0.00 0.00 0.00 59 1013.2
20260904195918 93 272 0.0 1.0 0.00 0.00 0.00 57 1013.4
20260904195415 93 260 0.0 1.0 0.00 0.00 0.00 58 1013.5
20260904194910 93 247 0.0 1.0 0.00 0.00 0.00 58 1013.6
20260904194410 94 229 0.0 1.0 0.00 0.00 0.00 56 1013.8
20260904193905 95 254 0.0 1.0 0.00 0.00 0.00 55 1013.8
20260904193400 95 230 2.0 2.0 0.00 0.00 0.00 53 1013.6
20260904192855 96 330 2.0 2.0 0.00 0.00 0.00 50 1013.6
20260904192351 98 2 2.0 2.0 0.00 0.00 0.00 48 1013.7
20260904191847 98 239 1.0 5.0 0.00 0.00 0.00 47 1013.8
20260904191344 99 258 3.0 4.0 0.00 0.00 0.00 48 1013.8
20260904190840 98 245 2.0 4.0 0.00 0.00 0.00 49 1014.1
20260904190335 98 305 1.0 3.0 0.00 0.00 0.00 49 1013.9
20260904185832 98 163 4.0 4.0 0.00 0.00 0.00 49 1014.0
20260904185327 98 263 2.0 3.0 0.00 0.00 0.00 48 1014.3
20260904184826 96 262 2.0 3.0 0.00 0.00 0.00 50 1014.5
20260904184321 96 332 2.0 2.0 0.00 0.00 0.00 51 1014.6
20260904183817 96 283 1.0 2.0 0.00 0.00 0.00 51 1014.6
20260904183312 97 128 1.0 4.0 0.00 0.00 0.00 51 1014.7
20260904182807 97 167 1.0 3.0 0.00 0.00 0.00 50 1014.9
20260904182306 97 350 1.0 3.0 0.00 0.00 0.00 50 1014.8
20260904181758 96 244 2.0 6.0 0.00 0.00 0.00 52 1014.9
20260904181257 95 228 3.0 5.0 0.00 0.00 0.00 52 1014.9
20260904180753 95 211 5.0 6.0 0.00 0.00 0.00 52 1015.0
20260904180248 95 271 2.0 6.0 0.00 0.00 0.00 53 1015.1
20260904175747 95 211 4.0 5.0 0.00 0.00 0.00 53 1015.1
20260904175245 95 252 2.0 3.0 0.00 0.00 0.00 53 1015.2
20260904174741 95 199 2.0 4.0 0.00 0.00 0.00 52 1015.6
20260904174237 95 256 3.0 8.0 0.00 0.00 0.00 52 1015.4
20260904173733 95 225 1.0 6.0 0.00 0.00 0.00 52 1015.6
20260904173232 95 178 2.0 5.0 0.00 0.00 0.00 50 1015.6
20260904172729 95 238 3.0 5.0 0.00 0.00 0.00 50 1015.7